[[{"header":{"parameterUnit":"m.s-1","parameterCategory":1,"la1":30.2991,"la2":30.254,"lo1":-89.0895,"lo2":-89.0444,"dy":0.0017,"dx":0.0017,"nx":28,"ny":28,"refTime":"2024-03-27T21:00:00:Z","depth":0,"parameterNumber":2,"parameterNumberName":"U-component_of_WINDS"},"data":[0,0,0,0,0,0,0,0,0,0,0,0,0,0,0,0,0,0,0,0,0,0,0,0,0,0,0,0,0,0,0,0,0,0,0,0,0,0,0,0,0,0,0,0,0,0,0,0,0,0,0,0,0,0,0,0,0,0,2.1525,2.1525,0,2.1559,2.1559,2.156,2.1541,2.154,2.1539,2.1538,2.1571,2.1572,2.1574,0,0,0,0,0,0,0,0,0,0,0,0,0,2.1441,2.1443,2.1524,2.1525,2.1525,2.1559,2.1559,2.156,2.1541,2.154,2.1539,2.1538,2.157,2.1572,2.1574,0,0,0,0,0,0,0,0,0,0,0,0,0,2.1477,2.1443,2.1524,2.152,2.152,2.1559,2.1559,2.156,2.1541,2.154,2.1539,2.1537,2.1569,2.1572,2.1574,2.1618,0,0,2.1582,2.1583,0,0,0,0,0,0,0,0,2.1475,2.148,2.152,2.1521,2.1521,2.1544,2.1542,2.1579,2.1542,2.1533,2.1538,2.1537,2.1563,2.1566,2.1575,2.162,2.1621,2.1583,2.1584,2.1585,2.1586,0,0,0,0,0,0,0,2.1472,2.1478,2.1538,2.1521,2.1521,2.1516,2.152,2.1549,2.1555,2.1534,2.1533,2.1537,2.1563,2.1573,2.1576,2.1622,2.1583,2.1585,2.1586,2.1587,2.1705,2.1707,0,0,0,0,0,0,2.147,2.1476,2.1537,2.1539,2.1494,2.1519,2.1523,2.1538,2.1555,2.1556,2.1538,2.1536,2.1569,2.1573,2.1577,2.163,2.1585,2.1588,2.1589,2.1704,2.1706,2.1707,0,0,0,0,0,0,2.1469,2.1476,2.1535,2.1507,2.1515,2.1522,2.1539,2.1539,2.155,2.1558,2.1559,2.1548,2.1568,2.1573,2.1609,2.1631,2.1589,2.1591,2.1702,2.1704,2.1706,2.1736,0,0,0,0,0,0,2.1466,2.1475,2.1492,2.1508,2.1516,2.1567,2.154,2.1541,2.1555,2.1552,2.1567,2.1568,2.1567,2.1605,2.1611,2.1634,2.1593,2.17,2.1703,2.1706,2.1733,2.1739,2.1744,0,0,0,0,0,2.1463,2.1498,2.1493,2.1501,2.1538,2.1568,2.1573,2.1572,2.1556,2.1573,2.1579,2.1568,2.1628,2.1609,2.1616,2.1639,2.1698,2.1702,2.1705,2.1731,2.1738,2.1744,0,0,0,0,0,0,2.1483,2.15,2.1495,2.1536,2.1551,2.1565,2.1586,2.158,2.1599,2.1595,2.1592,2.1596,2.1633,2.164,2.1618,2.1683,2.166,2.1666,2.1677,2.1684,2.169,2.1687,2.1595,0,0,0,0,0,2.1493,2.1518,2.153,2.1566,2.1574,2.1579,2.1592,2.159,2.1606,2.1611,2.162,2.1634,2.1656,2.1671,2.1691,2.1734,2.1738,2.1754,2.176,2.1764,2.1768,2.1792,2.18,2.1719,2.1719,2.1719,0,0,2.1512,2.1525,2.154,2.157,2.1581,2.1606,2.1584,2.1611,2.163,2.1615,2.1649,2.1656,2.1672,2.1712,2.173,2.1719,2.1792,2.1769,2.1772,2.1774,2.1797,2.1804,2.1811,2.1721,2.1721,2.172,0,0,2.156,2.1572,2.1603,2.1616,2.1634,2.1638,2.1645,2.1661,2.1666,2.17,2.169,2.1712,2.175,2.1762,2.1773,2.1829,2.1819,2.1835,2.1864,2.1887,2.1894,2.19,2.1919,2.1926,2.184,2.184,2.184,0,2.1581,2.1619,2.1619,2.1648,2.1662,2.1652,2.1683,2.1695,2.1719,2.1728,2.1716,2.1765,2.1775,2.1817,2.1831,2.184,2.1849,2.1833,2.1893,2.1899,2.1904,2.1923,2.193,2.1842,2.1841,2.1841,2.1841,0,2.1645,2.1672,2.1694,2.1719,2.1736,2.1765,2.177,2.1786,2.1784,2.1789,2.1825,2.1837,2.186,2.187,2.1867,2.1913,2.1906,2.1894,2.187,2.1914,2.1931,2.1938,2.1844,2.1844,2.1843,2.1843,0,0,2.1704,2.1731,2.1739,2.1751,2.1772,2.1792,2.1822,2.1846,2.186,2.1878,2.1902,2.1936,2.1925,2.1938,2.1936,2.1957,2.2001,2.1942,2.1943,2.1953,2.2052,2.2061,2.2069,2.1995,2.1996,2.1998,2.2051,0,2.1754,2.1806,2.1808,2.1856,2.1881,2.1873,2.1899,2.1914,2.192,2.1942,2.1948,2.1972,2.1956,2.1964,2.1984,2.1991,2.202,2.1987,2.2017,2.2018,2.2013,2.2078,2.2087,2.2137,2.2058,2.2059,2.206,0,2.1817,2.1839,2.189,2.1908,2.1919,2.1942,2.1965,2.1986,2.2004,2.2007,2.2022,2.2018,2.2048,2.2026,2.2067,2.2045,2.2058,2.2063,2.2065,2.2067,2.2041,2.2082,2.2153,2.216,2.2071,2.207,2.2069,0,2.1856,2.1897,2.1933,2.1943,2.1966,2.1983,2.1993,2.2009,2.2024,2.2044,2.2054,2.2077,2.209,2.2108,2.211,2.2093,2.2152,2.2129,2.2155,2.2155,2.2167,2.2166,2.224,2.2176,2.2176,2.2176,2.2176,0,2.191,2.1941,2.1951,2.1973,2.2008,2.201,2.2045,2.2054,2.2069,2.2092,2.2087,2.2108,2.2111,2.2133,2.2136,2.217,2.2176,2.2179,2.2179,2.2179,2.2178,2.2186,2.2183,2.2178,2.2177,2.2177,2.2177,0,2.1958,2.1966,2.2005,2.2024,2.2029,2.2054,2.207,2.2092,2.2098,2.2128,2.2135,2.2144,2.2171,2.2176,2.2207,2.2208,2.2249,2.2246,2.2244,2.2243,2.2268,2.2266,2.235,2.2361,2.229,2.2291,2.2291,0,2.1992,2.2016,2.2039,2.2055,2.2066,2.2091,2.2108,2.2111,2.2128,2.2151,2.2169,2.2196,2.2217,2.226,2.2269,2.2293,2.229,2.2318,2.2294,2.2293,2.229,2.2289,2.2291,2.2322,2.2323,2.2324,2.2324,0,2.2051,2.2054,2.2078,2.2104,2.2123,2.2143,2.2162,2.2175,2.2182,2.2201,2.2229,2.2246,2.2278,2.2305,2.2329,2.2339,2.2333,2.2332,2.234,2.2339,2.2337,2.2339,2.2256,2.233,2.2329,2.2329,2.2329,2.2329,2.2092,2.2114,2.2134,2.2161,2.2176,2.2195,2.2216,2.2226,2.225,2.2277,2.2278,2.2309,2.2327,2.2359,2.2371,2.2395,2.2386,2.2396,2.2399,2.2401,2.2403,2.2334,2.2399,2.2399,2.2399,2.2399,2.2399,0,2.2151,2.2164,2.2189,2.2217,2.2238,2.2233,2.2254,2.2272,2.23,2.2318,2.2339,2.2372,2.2398,2.2411,2.2436,2.2453,2.2451,2.246,2.2458,2.246,2.241,2.2401,2.2461,2.2461,2.2461,2.2461,2.2461,2.2461,2.2184,2.2221,2.2227,2.2271,2.2283,2.2314,2.2327,2.2344,2.2359,2.2396,2.2418,2.2427,2.2443,2.247,2.2494,2.2497,2.2506,2.2516,2.2518,2.247,2.2464,2.2458,2.2449,2.2518,2.2518,2.2566,2.2567,2.2567]},{"header":{"parameterUnit":"m.s-1","parameterCategory":1,"la1":30.2991,"la2":30.254,"lo1":-89.0895,"lo2":-89.0444,"dy":0.0017,"dx":0.0017,"nx":28,"ny":28,"refTime":"2024-03-27T21:00:00:Z","depth":0,"parameterNumber":3,"parameterNumberName":"V-component_of_WINDS"},"data":[0,0,0,0,0,0,0,0,0,0,0,0,0,0,0,0,0,0,0,0,0,0,0,0,0,0,0,0,0,0,0,0,0,0,0,0,0,0,0,0,0,0,0,0,0,0,0,0,0,0,0,0,0,0,0,0,0,0,-7.3732,-7.3734,0,-7.3859,-7.3861,-7.3862,-7.3778,-7.3774,-7.377,-7.3767,-7.3891,-7.3897,-7.3904,0,0,0,0,0,0,0,0,0,0,0,0,0,-7.3412,-7.3418,-7.3732,-7.3734,-7.3735,-7.3859,-7.3861,-7.3862,-7.3779,-7.3774,-7.3769,-7.3765,-7.3888,-7.3896,-7.3905,0,0,0,0,0,0,0,0,0,0,0,0,0,-7.3546,-7.342,-7.3732,-7.3709,-7.3708,-7.3859,-7.3861,-7.3863,-7.378,-7.3774,-7.3768,-7.3763,-7.3886,-7.3896,-7.3906,-7.4085,0,0,-7.3937,-7.3942,0,0,0,0,0,0,0,0,-7.3538,-7.3558,-7.371,-7.371,-7.371,-7.3797,-7.3793,-7.3937,-7.3781,-7.3752,-7.3767,-7.376,-7.3864,-7.3875,-7.3912,-7.409,-7.4096,-7.3938,-7.3944,-7.3949,-7.3952,0,0,0,0,0,0,0,-7.3529,-7.3552,-7.3782,-7.3713,-7.3712,-7.369,-7.3703,-7.382,-7.3838,-7.3754,-7.3749,-7.3765,-7.3862,-7.3902,-7.3914,-7.4098,-7.3938,-7.3947,-7.3953,-7.3957,-7.443,-7.4436,0,0,0,0,0,0,-7.3523,-7.3545,-7.3778,-7.3786,-7.3608,-7.3701,-7.3715,-7.3775,-7.3837,-7.3841,-7.377,-7.3761,-7.3887,-7.3902,-7.3918,-7.4132,-7.3949,-7.3958,-7.3964,-7.4424,-7.4431,-7.4438,0,0,0,0,0,0,-7.3516,-7.3544,-7.3773,-7.3664,-7.3691,-7.3712,-7.378,-7.378,-7.382,-7.3849,-7.3851,-7.3807,-7.3883,-7.3903,-7.4044,-7.4135,-7.3963,-7.3973,-7.4416,-7.4426,-7.4435,-7.4562,0,0,0,0,0,0,-7.3507,-7.3542,-7.3612,-7.3666,-7.3698,-7.3899,-7.3786,-7.3787,-7.3839,-7.3828,-7.3885,-7.3888,-7.388,-7.403,-7.4055,-7.4146,-7.3981,-7.4408,-7.442,-7.4432,-7.455,-7.4575,-7.4596,0,0,0,0,0,-7.3496,-7.3641,-7.3616,-7.3644,-7.3785,-7.3905,-7.3922,-7.3912,-7.3846,-7.3916,-7.3934,-7.3887,-7.4121,-7.4045,-7.4072,-7.4169,-7.4402,-7.4417,-7.4431,-7.454,-7.457,-7.4596,0,0,0,0,0,0,-7.3594,-7.3648,-7.362,-7.3788,-7.3843,-7.389,-7.3977,-7.3944,-7.4018,-7.4004,-7.3986,-7.3999,-7.4147,-7.4171,-7.4085,-7.4345,-7.4251,-7.4272,-7.4324,-7.4353,-7.4376,-7.4367,-7.3989,0,0,0,0,0,-7.3636,-7.3731,-7.3771,-7.3915,-7.3944,-7.3957,-7.4008,-7.3996,-7.4051,-7.4073,-7.4102,-7.4156,-7.4242,-7.4299,-7.4379,-7.4553,-7.4564,-7.4632,-7.4655,-7.4674,-7.4693,-7.4787,-7.4818,-7.4485,-7.4485,-7.4485,0,0,-7.3722,-7.3763,-7.3823,-7.3936,-7.3977,-7.4074,-7.3977,-7.4083,-7.4155,-7.4088,-7.4225,-7.4248,-7.4306,-7.4465,-7.4536,-7.449,-7.4787,-7.4693,-7.4708,-7.4715,-7.4805,-7.4836,-7.4864,-7.4495,-7.4493,-7.4492,0,0,-7.3929,-7.397,-7.4094,-7.4138,-7.4203,-7.421,-7.424,-7.4294,-7.4308,-7.4444,-7.4397,-7.448,-7.4629,-7.4673,-7.4715,-7.494,-7.4899,-7.4966,-7.5088,-7.518,-7.5206,-7.5229,-7.531,-7.5339,-7.4984,-7.4985,-7.4985,0,-7.4027,-7.4174,-7.4162,-7.4273,-7.4324,-7.4271,-7.4397,-7.4439,-7.4526,-7.4561,-7.4508,-7.4695,-7.473,-7.4899,-7.4954,-7.4989,-7.5022,-7.496,-7.5203,-7.5227,-7.5248,-7.5325,-7.5355,-7.4992,-7.4991,-7.4991,-7.499,0,-7.4292,-7.4394,-7.4487,-7.4576,-7.4636,-7.4754,-7.4758,-7.4821,-7.4803,-7.4816,-7.4955,-7.4997,-7.5085,-7.5124,-7.5106,-7.5291,-7.526,-7.5206,-7.5111,-7.5288,-7.536,-7.5389,-7.5004,-7.5001,-7.4998,-7.4997,0,0,-7.4564,-7.4646,-7.468,-7.472,-7.4788,-7.4866,-7.4981,-7.507,-7.5124,-7.5185,-7.5281,-7.5408,-7.5359,-7.5407,-7.5394,-7.5475,-7.5652,-7.541,-7.5411,-7.5455,-7.5858,-7.5899,-7.5933,-7.5625,-7.563,-7.5634,-7.5853,0,-7.4776,-7.498,-7.4972,-7.5161,-7.5256,-7.5207,-7.5307,-7.5359,-7.5374,-7.5454,-7.5469,-7.5561,-7.5488,-7.5517,-7.5595,-7.5614,-7.5732,-7.5598,-7.5712,-7.5717,-7.5701,-7.5971,-7.6014,-7.6219,-7.5881,-7.5886,-7.5889,0,-7.505,-7.5124,-7.5324,-7.5379,-7.5418,-7.5509,-7.559,-7.5668,-7.5725,-7.573,-7.5785,-7.5759,-7.5874,-7.5776,-7.5934,-7.5843,-7.5889,-7.5905,-7.5913,-7.5924,-7.5814,-7.599,-7.6283,-7.6315,-7.5933,-7.593,-7.5926,0,-7.523,-7.5379,-7.5518,-7.5553,-7.5621,-7.5686,-7.5716,-7.5768,-7.5823,-7.5893,-7.5928,-7.601,-7.6055,-7.6118,-7.6115,-7.6043,-7.6275,-7.6176,-7.6282,-7.6282,-7.6333,-7.633,-7.664,-7.6362,-7.6361,-7.6361,-7.636,0,-7.5468,-7.5592,-7.56,-7.5686,-7.5823,-7.5813,-7.5948,-7.5972,-7.6019,-7.6107,-7.6068,-7.6152,-7.6142,-7.6225,-7.6222,-7.6354,-7.6374,-7.6381,-7.6379,-7.6385,-7.6385,-7.6416,-7.6402,-7.6369,-7.6367,-7.6366,-7.6364,0,-7.5692,-7.5703,-7.5851,-7.5904,-7.592,-7.6019,-7.6063,-7.6144,-7.6155,-7.6268,-7.6293,-7.6311,-7.6407,-7.641,-7.6519,-7.6518,-7.6679,-7.666,-7.6661,-7.6657,-7.6763,-7.6754,-7.7104,-7.715,-7.6842,-7.6844,-7.6847,0,-7.5844,-7.5938,-7.6002,-7.606,-7.6096,-7.6188,-7.6244,-7.6237,-7.6297,-7.637,-7.6442,-7.6535,-7.6609,-7.6765,-7.6786,-7.687,-7.6853,-7.6971,-7.6866,-7.6869,-7.6856,-7.6851,-7.6861,-7.6991,-7.6995,-7.6997,-7.7,0,-7.6112,-7.6113,-7.6196,-7.6283,-7.6352,-7.6418,-7.648,-7.6529,-7.6529,-7.6598,-7.6697,-7.6755,-7.6868,-7.6961,-7.7042,-7.7071,-7.7036,-7.7033,-7.7062,-7.7069,-7.7066,-7.7071,-7.6718,-7.7025,-7.7022,-7.702,-7.7019,-7.7018,-7.6305,-7.6387,-7.6446,-7.6541,-7.6587,-7.6646,-7.6725,-7.6748,-7.6832,-7.6925,-7.6915,-7.7026,-7.708,-7.7186,-7.7223,-7.7308,-7.7267,-7.7309,-7.7319,-7.733,-7.7342,-7.7052,-7.7322,-7.7321,-7.7321,-7.732,-7.732,0,-7.6572,-7.6608,-7.6695,-7.6784,-7.6859,-7.6821,-7.6888,-7.6952,-7.7051,-7.7106,-7.718,-7.7295,-7.7385,-7.7414,-7.7501,-7.7564,-7.755,-7.7587,-7.7582,-7.759,-7.7373,-7.734,-7.7597,-7.7597,-7.7597,-7.7597,-7.7597,-7.7596,-7.672,-7.6858,-7.6866,-7.7027,-7.7061,-7.7171,-7.7213,-7.7267,-7.7311,-7.7441,-7.7517,-7.7536,-7.7581,-7.7671,-7.7752,-7.7758,-7.7792,-7.7836,-7.7836,-7.7633,-7.7605,-7.7578,-7.7547,-7.7843,-7.7844,-7.8045,-7.8047,-7.8049]}]]